User: anonymous   Login
Location: Unspecified
(0.0000°N, 0.0000°E)
Time: 15:39:03
(UTC+01:00)
Language:

Cosmos 2219 Rocket - Orbit

View from above orbital plane
View from above orbital plane
View from above satellite
View from above satellite

Ground track
Ground track

The orbit data is extracted from the following two-line orbital elements,

1 22220U 92076B   16344.93271617 -.00000143  00000-0 -47610-4 0  9998
2 22220  71.0009  97.6176 0013893 210.8867 289.5742 14.16409482243970
Epoch (UTC): 09 December 2016 22:23:06
Eccentricity: 0.0013893
inclination: 71.0009°
perigee height: 827 km
apogee height: 847 km
right ascension of ascending node: 97.6176°
argument of perigee: 210.8867°
revolutions per day: 14.16409482
mean anomaly at epoch: 289.5742°
orbit number at epoch: 24397

The dashed part of the orbit path shows where the satellite is in the earth's shadow,  

DLR